Погода в Зугдиди

Погода в Зугдиди : погода сейчас, прогноз погоды и архив. Всё, что Вы хотите узнать о погоде в Зугдиди!

Поиск расширенной информации на нашем сайте:

Другие новости

Новости СМИ2

Главная страница сайта

Новости сайта

03.07.2017

Напоминаем, что на нашем специализированном сайте Метеоцентр.Азия вы можете получить высокодетализированные автоматические прогнозы погоды по пунктам России, СНГ и мира в авиационном формате (включающие направление и скорость ветра, видимость, явления погоды, количество и форму облачности, нижнюю и верхнюю границу облачности).


Погода в Зугдиди - сегодня

Время (UTC), дата Ветер
(°,м/с) 
Видим.   Явления Облачность Т
(°С)
Тd
(°С)
f(%) Тe
(°С)
Pmin
(гПа)
dP
(гПа)
Po
(мм)
O2
(г/м3)
Тmin Tmax R s Состояние
почвы
15 19.11.17 180 (Ю) н/о    н/о 
+18 +5.3 43 +19  1018.4  1.4  749  282    +24.1       
18 19.11.17 030 (СВ) н/о    н/о 
+15.5 +9.1 66 +15  1018.8  0.2  750  284    +24.1  0.3     
21 19.11.17 040 (СВ) н/о    н/о 
+18.1 +5.7 44 +18  1017.7  -0.9  749  282           
00 20.11.17 100 (В) н/о    н/о 
+17.2 +6 48 +17  1017.9  0.1  749  283           
03 20.11.17 090 (В) н/о    н/о 
+15.6 +6.5 55 +16  1017.8  0.1  749  284      0.3     
06 20.11.17 250 (З) н/о    н/о 
+15.8 +9.1 64 +17  1017.9  0.1  749  284  +9.9         
09 20.11.17 130 (ЮВ) н/о    н/о 
+22.3 +6.9 37 +22  1016  -1.4  748  277           
12 20.11.17 120 (ЮВ) н/о    н/о 
+22.7 +6.5 35 +23  1014.1  -1.8  746  277           
18 20.11.17 080 (В) н/о    н/о 
+17.5 +5.1 44 +18  1012.1  -1.5  745  281    +23.2       
21 20.11.17 090 (В) н/о    н/о 
+18 +4.2 40 +18  1010.4  -1.6  743  280           
00 21.11.17 090 (В) н/о    н/о 
+19.4 +3.5 35 +20  1008.8  -1.5  742  279           
03 21.11.17 100 (В) н/о    н/о 
+20.4 +3.6 33 +20  1007.5  -1.2  741  277           
06 21.11.17 070 (В) н/о    н/о 
+19.3 +4.8 38 +19  1006.1  -1.4  740  278  +16.6         
09 21.11.17 100 (В) 10  н/о    н/о 
+22.7 +5.3 32 +23  1004.2  -1.6  739  274           
12 21.11.17 090 (В) н/о    н/о 
+21.3 +4.3 33 +21  1001.6  -2.7  737  275           
15 21.11.17 170 (Ю) н/о    н/о 
+16.8 +13.1 79 +22  1005.2  3.2  740  278    +22.8       
18 21.11.17 230 (ЮЗ) н/о    н/о 
+10.9 +10.4 97 +11  1012.5  6.7  745  287    +22.8  11     
21 21.11.17 260 (З) н/о    н/о 
+9.1 +8.8 98 +8  1015.7  747  290      12     
00 22.11.17 270 (З) н/о    н/о 
+8.2 +7.8 97 +7  1017.6  1.8  748  291      18     
06 22.11.17 210 (ЮЗ) н/о    н/о 
+8 +6.8 92 +8  1019.7  750  292  +7    20     
09 22.11.17 210 (ЮЗ) н/о    н/о 
+9.4 +5.6 77 +8  1020  0.4  750  291           
12 22.11.17 220 (ЮЗ) н/о    н/о 
+9.1 +4.5 73 +8  1020.3  0.3  750  292           
15 22.11.17 240 (ЮЗ) н/о    н/о 
+5.4 +4 91 +5  1021.8  1.2  751  296    +17       
18 22.11.17 110 (В) н/о    н/о 
+4.7 +3.2 90 +3  1022.2  0.3  752  297    +10.6       
21 22.11.17 130 (ЮВ) н/о    н/о 
+4.2 +3.2 93 +2  1021.5  -0.7  751  298      0.1     
Время (UTC), дата Ветер
(°,м/с) 
Видим.   Явления Облачность Т
(°С)
Тd
(°С)
f(%) Тe
(°С)
Pmin
(гПа)
dP
(гПа)
Po
(мм)
O2
(г/м3)
Тmin Tmax R s Состояние
почвы

Для получения пояснительной информации подведите курсор к названию столбца.

ПОГОДА в Зугдиди - архив

Всё, что Вы хотите узнать о погоде в Зугдиди - удобно и подробно!

Выберите нужную дату (начиная с 1 января 2015* года) и нажмите кнопку "Найти".
Будут отображены архивные сводки погоды по пункту Зугдиди, начиная с указанной даты.


Отображать данные в формате CSV (для использования в таблицах Excel)


Внимание! Наш архив погоды предназначен исключительно для личного некоммерческого использования в познавательных целях. Если Вам необходимы официальные справки о состоянии погоды (для производственных, юридических, коммерческих и т.п. целей), обращайтесь в органы Росгидромета.

*Примечание: данная дата относится к архиву по метеостанциям СССР (Россия, СНГ, Балтия).
Архив по метеостанциям Зарубежной Европы и Азии (кроме Китая) хранится 10 дней, по другим регионам земного шара (Китай, Африка, Америка, Австралия, Океания) - 1 день.

Зугдиди - район местоположения метеостанции


Название, широта, долгота, высота метеостанции:
Зугдиди 42.5°ш. 41.9°д. 117 м над ур. моря [Грузия]

Дополнительная информация

В oтличие oт бoльшинства пoгoдных сайтoв мы публикуем пoдрoбную метеoинфoрмацию в детальнoм прoфессиoнальнoм фoрмате.

Характеристики температуры и влажнoсти вoздуха измеряются на высoте 2 м в тени вдали oт зданий и деревьев.
Скoрoсть ветра измеряется на высoте 10 м (на урoвне рoста челoвека скoрoсть ветра ниже в 1.5-2 раза). Если метеoстанция нахoдится в гoрoде или в лесу, тo скoрoсть ветра занижена на 2-4 м/с пo сравнению с oткрытым местoм. Скoрoсть ветра над акватoриями крупных рек и oзёр, а также на вершинах хoлмoв на 2-5 м/с выше, чем в oбычных услoвиях.
Атмoсфернoе давление в разных тoчках местнoсти мoжет значительнo oтличаться oт давления на метеoстанции, в зависимoсти oт услoвий рельефа (при пoдъёме на 10 м давление пoнижается примернo на 1 мм рт.ст.).